When you browse on this site, cookies collect data to enhance your experience and personalize the content and advertising you see.
Visit our Privacy Policy to learn more. By continuing to use the site, you agree to this use of cookies and data.
  • In Spain
  • List of Countries
  • For 7 days
  • Water Temperature
  • Weather Map
  • Weather Widgets
  • user-avatar
    Login

    Hourly Weather Ali Sabieh

    Today, 24 February, Monday

    Time Temperature Precipitation Wind Pressure Humidity
    00:00 +21°C° 0 mm 6 mps 698 mmHg 83%
    01:00 +21°C° 0 mm 6 mps 698 mmHg 83%
    02:00 +21°C° 0 mm 6 mps 697 mmHg 83%
    03:00 +20°C° 0 mm 6 mps 696 mmHg 83%
    04:00 +20°C° 0 mm 6 mps 697 mmHg 84%
    05:00 +20°C° 0 mm 6 mps 697 mmHg 84%
    06:00 +20°C° 0 mm 7 mps 698 mmHg 85%
    07:00 +21°C° 0 mm 7 mps 698 mmHg 81%
    08:00 +21°C° 0 mm 8 mps 698 mmHg 78%
    09:00 +22°C° 0 mm 7 mps 699 mmHg 72%
    10:00 +24°C° 0 mm 8 mps 699 mmHg 62%
    11:00 +27°C° 0 mm 8 mps 699 mmHg 52%
    12:00 +28°C° 0 mm 8 mps 699 mmHg 42%
    13:00 +29°C° 0 mm 8 mps 698 mmHg 41%
    14:00 +29°C° 0 mm 8 mps 697 mmHg 39%
    15:00 +29°C° 0 mm 9 mps 696 mmHg 40%
    16:00 +27°C° 0 mm 9 mps 697 mmHg 46%
    17:00 +26°C° 0 mm 8 mps 697 mmHg 53%
    18:00 +24°C° 0 mm 8 mps 697 mmHg 59%
    19:00 +23°C° 0 mm 8 mps 697 mmHg 66%
    20:00 +22°C° 0 mm 7 mps 697 mmHg 73%
    21:00 +21°C° 0 mm 7 mps 698 mmHg 80%
    22:00 +21°C° 0 mm 7 mps 698 mmHg 80%
    23:00 +21°C° 0 mm 7 mps 698 mmHg 80%

    Tomorrow, 25 February, Tuesday

    Time Temperature Precipitation Wind Pressure Humidity
    00:00 +21°C° 0 mm 7 mps 698 mmHg 80%
    01:00 +21°C° 0 mm 7 mps 697 mmHg 82%
    02:00 +21°C° 0 mm 6 mps 697 mmHg 84%
    03:00 +20°C° 0 mm 6 mps 696 mmHg 86%
    04:00 +20°C° 0 mm 6 mps 697 mmHg 86%
    05:00 +20°C° 0 mm 6 mps 697 mmHg 87%
    06:00 +20°C° 0 mm 6 mps 697 mmHg 88%
    07:00 +21°C° 0 mm 6 mps 698 mmHg 80%
    08:00 +22°C° 0 mm 6 mps 699 mmHg 72%
    09:00 +23°C° 0 mm 6 mps 699 mmHg 64%
    10:00 +26°C° 0 mm 6 mps 699 mmHg 56%
    11:00 +27°C° 0 mm 6 mps 699 mmHg 48%
    12:00 +29°C° 0 mm 7 mps 699 mmHg 40%
    13:00 +30°C° 0 mm 6 mps 698 mmHg 40%
    14:00 +30°C° 0 mm 6 mps 697 mmHg 40%
    15:00 +32°C° 0 mm 6 mps 696 mmHg 40%
    16:00 +29°C° 0 mm 6 mps 697 mmHg 46%
    17:00 +28°C° 0 mm 6 mps 697 mmHg 51%
    18:00 +27°C° 0 mm 6 mps 697 mmHg 56%
    19:00 +26°C° 0 mm 6 mps 697 mmHg 63%
    20:00 +25°C° 0 mm 5 mps 698 mmHg 70%
    21:00 +23°C° 0 mm 5 mps 698 mmHg 77%
    22:00 +22°C° 0 mm 4 mps 698 mmHg 78%
    23:00 +22°C° 0 mm 3 mps 698 mmHg 79%

    Day after tomorrow, 26 February, Wednesday

    Time Temperature Precipitation Wind Pressure Humidity
    00:00 +22°C° 0 mm 3 mps 698 mmHg 80%
    01:00 +23°C° 0 mm 2 mps 698 mmHg 81%
    02:00 +21°C° 0 mm 2 mps 698 mmHg 81%
    03:00 +22°C° 0 mm 1 mps 698 mmHg 82%
    04:00 +22°C° 0 mm 1 mps 698 mmHg 83%
    05:00 +22°C° 0 mm 1 mps 698 mmHg 84%
    06:00 +21°C° 0 mm 1 mps 699 mmHg 84%
    07:00 +22°C° 0 mm 1 mps 699 mmHg 76%
    08:00 +24°C° 0 mm 1 mps 700 mmHg 67%
    09:00 +25°C° 0 mm 1 mps 700 mmHg 59%
    10:00 +26°C° 0 mm 1 mps 700 mmHg 53%
    11:00 +28°C° 0 mm 2 mps 700 mmHg 47%
    12:00 +29°C° 0 mm 2 mps 700 mmHg 41%
    13:00 +30°C° 0 mm 3 mps 699 mmHg 39%
    14:00 +31°C° 0 mm 3 mps 699 mmHg 37%
    15:00 +33°C° 0 mm 4 mps 698 mmHg 34%
    16:00 +32°C° 0 mm 5 mps 698 mmHg 41%
    17:00 +30°C° 0 mm 6 mps 698 mmHg 47%
    18:00 +28°C° 0 mm 7 mps 698 mmHg 54%
    19:00 +27°C° 0 mm 6 mps 698 mmHg 61%
    20:00 +26°C° 0 mm 6 mps 698 mmHg 69%
    21:00 +23°C° 0 mm 6 mps 698 mmHg 76%
    22:00 +23°C° 0 mm 6 mps 698 mmHg 77%
    23:00 +23°C° 0 mm 5 mps 699 mmHg 79%

    27 February, Thursday

    Time Temperature Precipitation Wind Pressure Humidity
    00:00 +23°C° 0 mm 5 mps 699 mmHg 81%
    01:00 +22°C° 0 mm 4 mps 698 mmHg 81%
    02:00 +22°C° 0 mm 4 mps 698 mmHg 82%
    03:00 +22°C° 0 mm 3 mps 698 mmHg 83%
    04:00 +22°C° 0 mm 3 mps 698 mmHg 83%
    05:00 +22°C° 0 mm 3 mps 699 mmHg 82%
    06:00 +22°C° 0 mm 3 mps 699 mmHg 82%
    07:00 +22°C° 0 mm 3 mps 699 mmHg 78%
    08:00 +24°C° 0 mm 3 mps 700 mmHg 74%
    09:00 +25°C° 0 mm 4 mps 700 mmHg 70%
    10:00 +26°C° 0 mm 4 mps 700 mmHg 66%
    11:00 +26°C° 0 mm 4 mps 700 mmHg 62%
    12:00 +27°C° 0 mm 4 mps 700 mmHg 58%
    13:00 +28°C° 0 mm 4 mps 699 mmHg 51%
    14:00 +29°C° 0 mm 5 mps 699 mmHg 45%
    15:00 +30°C° 0 mm 5 mps 698 mmHg 39%
    16:00 +30°C° 0 mm 5 mps 698 mmHg 39%
    17:00 +29°C° 0 mm 6 mps 698 mmHg 40%
    18:00 +29°C° 0 mm 6 mps 698 mmHg 40%
    19:00 +27°C° 0 mm 5 mps 698 mmHg 49%
    20:00 +26°C° 0 mm 4 mps 698 mmHg 57%
    21:00 +25°C° 0 mm 4 mps 698 mmHg 66%
    22:00 +23°C° 0 mm 4 mps 698 mmHg 70%
    23:00 +22°C° 0 mm 3 mps 698 mmHg 75%

    28 February, Friday

    Time Temperature Precipitation Wind Pressure Humidity
    00:00 +21°C° 0 mm 3 mps 698 mmHg 80%
    01:00 +21°C° 0 mm 3 mps 697 mmHg 83%
    02:00 +20°C° 0 mm 3 mps 697 mmHg 86%
    03:00 +20°C° 0 mm 2 mps 696 mmHg 89%
    04:00 +20°C° 0 mm 2 mps 697 mmHg 90%
    05:00 +19°C° 0 mm 2 mps 697 mmHg 91%
    06:00 +20°C° 0 mm 1 mps 697 mmHg 92%
    07:00 +21°C° 0 mm 2 mps 698 mmHg 78%
    08:00 +23°C° 0 mm 2 mps 699 mmHg 64%
    09:00 +25°C° 0 mm 2 mps 700 mmHg 50%
    10:00 +27°C° 0 mm 3 mps 699 mmHg 42%
    11:00 +29°C° 0 mm 5 mps 699 mmHg 33%
    12:00 +32°C° 0 mm 6 mps 699 mmHg 25%
    13:00 +32°C° 0 mm 7 mps 698 mmHg 24%
    14:00 +33°C° 0 mm 7 mps 698 mmHg 23%
    15:00 +33°C° 0 mm 8 mps 697 mmHg 21%
    16:00 +32°C° 0 mm 8 mps 697 mmHg 25%
    17:00 +29°C° 0 mm 8 mps 697 mmHg 29%
    18:00 +28°C° 0 mm 8 mps 696 mmHg 32%
    19:00 +27°C° 0 mm 7 mps 697 mmHg 38%
    20:00 +24°C° 0 mm 7 mps 697 mmHg 43%
    21:00 +23°C° 0 mm 6 mps 697 mmHg 49%
    22:00 +23°C° 0 mm 6 mps 697 mmHg 52%
    23:00 +22°C° 0 mm 6 mps 696 mmHg 55%

    29 February, Saturday

    Time Temperature Precipitation Wind Pressure Humidity
    00:00 +22°C° 0 mm 5 mps 696 mmHg 58%
    01:00 +21°C° 0 mm 5 mps 696 mmHg 62%
    02:00 +21°C° 0 mm 5 mps 695 mmHg 67%
    03:00 +20°C° 0 mm 4 mps 695 mmHg 71%
    04:00 +20°C° 0 mm 4 mps 695 mmHg 74%
    05:00 +20°C° 0 mm 4 mps 695 mmHg 77%
    06:00 +19°C° 0 mm 3 mps 696 mmHg 80%
    07:00 +21°C° 0 mm 4 mps 696 mmHg 70%
    08:00 +22°C° 0 mm 5 mps 697 mmHg 61%
    09:00 +24°C° 0 mm 6 mps 698 mmHg 52%
    10:00 +27°C° 0 mm 6 mps 698 mmHg 45%
    11:00 +28°C° 0 mm 7 mps 698 mmHg 38%
    12:00 +30°C° 0 mm 7 mps 697 mmHg 31%
    13:00 +32°C° 0 mm 7 mps 697 mmHg 32%
    14:00 +32°C° 0 mm 7 mps 696 mmHg 33%
    15:00 +32°C° 0 mm 7 mps 695 mmHg 33%
    16:00 +30°C° 0 mm 7 mps 695 mmHg 40%
    17:00 +28°C° 0 mm 7 mps 695 mmHg 46%
    18:00 +27°C° 0 mm 6 mps 695 mmHg 52%
    19:00 +26°C° 0 mm 6 mps 695 mmHg 60%
    20:00 +24°C° 0 mm 6 mps 695 mmHg 68%
    21:00 +22°C° 0 mm 6 mps 696 mmHg 76%
    22:00 +22°C° 0 mm 5 mps 695 mmHg 79%
    23:00 +22°C° 0 mm 5 mps 695 mmHg 82%
    Show more